Location: Caltech
(34.1382°N, 118.1253°W)
Time: 05:15:46
(UTC-07:00)

Cosmos 1758 Rocket - Visible Passes

Search period start: 26 September 2016 00:00
Search period end: 06 October 2016 00:00
Orbit: 601 x 637 km, 82.5° (Epoch: 26 September)

Date Brightness Start Highest point End Pass type
(mag) Time Alt. Az. Time Alt. Az. Time Alt. Az.
27 Sep 6.8 05:43:18 10° SE 05:46:11 18° E 05:49:04 10° NE visible
27 Sep 7.5 19:12:09 10° WNW 19:13:27 11° W 19:14:45 10° WSW visible
28 Sep 5.5 05:59:34 10° SSE 06:03:29 34° E 06:07:24 10° NNE visible
29 Sep 3.9 06:16:34 10° S 06:20:53 72° E 06:25:11 10° N visible
01 Oct 6.4 05:15:15 10° SE 05:18:17 19° E 05:21:18 10° NE visible
02 Oct 5.1 05:31:37 10° SSE 05:35:35 37° E 05:39:34 10° NNE visible
03 Oct 3.6 05:48:41 10° S 05:52:59 79° E 05:57:18 10° N visible
04 Oct 3.7 06:06:17 10° SSW 06:10:27 49° W 06:14:40 10° N visible
05 Oct 6.1 04:47:12 10° SE 04:50:22 20° E 04:53:32 10° NE visible
05 Oct 4.5 06:24:30 10° SW 06:28:03 25° WNW 06:31:36 10° NNW visible
